[[{"header":{"parameterUnit":"m.s-1","parameterCategory":1,"la1":30.2991,"la2":30.254,"lo1":-89.0895,"lo2":-89.0444,"dy":0.0017,"dx":0.0017,"nx":28,"ny":28,"refTime":"2024-07-14T03:00:00:Z","depth":0,"parameterNumber":2,"parameterNumberName":"U-component_of_WINDS"},"data":[0,0,0,0,0,0,0,0,0,0,0,0,0,0,0,0,0,0,0,0,0,0,0,0,0,0,0,0,0,0,0,0,0,0,0,0,0,0,0,0,0,0,0,0,0,0,0,0,0,0,0,0,0,0,0,0,0,0,0.2877,0.288,0,0.3115,0.3118,0.312,0.3188,0.3187,0.3186,0.3185,0.3434,0.3441,0.3449,0,0,0,0,0,0,0,0,0,0,0,0,0,0.2488,0.2495,0.2877,0.288,0.2883,0.3114,0.3118,0.3121,0.3189,0.3187,0.3186,0.3184,0.3431,0.344,0.345,0,0,0,0,0,0,0,0,0,0,0,0,0,0.2685,0.2497,0.2876,0.2944,0.2953,0.3114,0.3118,0.3122,0.3189,0.3187,0.3185,0.3183,0.3428,0.3439,0.3451,0.3563,0,0,0.3487,0.3492,0,0,0,0,0,0,0,0,0.2673,0.2699,0.2931,0.294,0.295,0.312,0.3072,0.327,0.319,0.31,0.3185,0.3182,0.3331,0.3351,0.34,0.3575,0.3585,0.3488,0.3495,0.35,0.3504,0,0,0,0,0,0,0,0.266,0.2689,0.2971,0.2935,0.2946,0.2965,0.2991,0.311,0.3224,0.3107,0.3113,0.314,0.3336,0.3388,0.3406,0.3589,0.3488,0.3498,0.3505,0.351,0.3871,0.3873,0,0,0,0,0,0,0.2634,0.2677,0.2964,0.2978,0.2804,0.2974,0.3003,0.3067,0.3223,0.3244,0.3141,0.3142,0.3369,0.3392,0.3415,0.3558,0.35,0.3511,0.3518,0.3868,0.3871,0.3874,0,0,0,0,0,0,0.2625,0.2658,0.2954,0.2829,0.2868,0.2983,0.3055,0.3073,0.3126,0.3248,0.3269,0.3173,0.3369,0.3399,0.3526,0.3568,0.3517,0.3527,0.3865,0.3869,0.3873,0.3844,0,0,0,0,0,0,0.2613,0.2655,0.2697,0.283,0.2875,0.3059,0.3057,0.3079,0.3145,0.3148,0.3284,0.3305,0.3369,0.3508,0.3538,0.3583,0.3536,0.3862,0.3867,0.3872,0.3841,0.3846,0.385,0,0,0,0,0,0.2599,0.268,0.2698,0.2733,0.2929,0.3061,0.3087,0.3158,0.3148,0.3192,0.3272,0.33,0.3558,0.352,0.3554,0.3604,0.386,0.3866,0.3871,0.3839,0.3845,0.385,0,0,0,0,0,0,0.255,0.2698,0.2721,0.2846,0.294,0.3072,0.313,0.3161,0.3261,0.3261,0.3347,0.3377,0.3499,0.3564,0.352,0.3722,0.371,0.3723,0.3674,0.3681,0.3685,0.3667,0.3546,0,0,0,0,0,0.2553,0.2646,0.2771,0.287,0.2916,0.3014,0.3074,0.3121,0.3223,0.3264,0.3352,0.3451,0.3555,0.3622,0.3724,0.3851,0.3883,0.3903,0.3907,0.3909,0.392,0.3995,0.4005,0.3893,0.3893,0.3893,0,0,0.2562,0.2654,0.2708,0.2862,0.2941,0.3037,0.3048,0.3148,0.3221,0.328,0.3405,0.3473,0.359,0.3719,0.378,0.3777,0.3958,0.3917,0.3918,0.3927,0.4002,0.4012,0.4021,0.3897,0.3896,0.3895,0,0,0.2626,0.2705,0.2796,0.2875,0.2993,0.3059,0.3081,0.3208,0.3256,0.3383,0.3429,0.3518,0.3695,0.3776,0.3841,0.3939,0.397,0.397,0.3992,0.4065,0.4073,0.4082,0.4118,0.413,0.398,0.398,0.398,0,0.2622,0.2767,0.284,0.2939,0.3007,0.3063,0.3158,0.3231,0.3377,0.3424,0.3419,0.3642,0.3725,0.3874,0.3898,0.3948,0.3978,0.3955,0.4066,0.4075,0.4084,0.412,0.4133,0.3979,0.3979,0.3979,0.3979,0,0.2757,0.2857,0.2917,0.3056,0.3131,0.3227,0.3317,0.3384,0.3425,0.3492,0.3622,0.3724,0.3848,0.3887,0.3928,0.4044,0.4038,0.4048,0.4038,0.4093,0.4128,0.4142,0.3978,0.3978,0.3979,0.3979,0,0,0.2796,0.2975,0.2996,0.306,0.3196,0.3276,0.3376,0.3496,0.3553,0.3653,0.3741,0.389,0.39,0.3974,0.4025,0.4088,0.4162,0.4092,0.4096,0.4102,0.4298,0.4289,0.4304,0.4183,0.4186,0.4189,0.4288,0,0.2879,0.3057,0.3127,0.3274,0.3369,0.3425,0.3513,0.3607,0.3673,0.3765,0.3838,0.3943,0.3948,0.3993,0.4058,0.4139,0.4203,0.4133,0.4268,0.4272,0.4237,0.4322,0.4314,0.4403,0.4302,0.4305,0.4306,0,0.2998,0.3098,0.3253,0.338,0.3422,0.3499,0.3617,0.3703,0.3812,0.3856,0.3938,0.3986,0.4097,0.4079,0.4234,0.4185,0.4245,0.4293,0.4299,0.4315,0.4293,0.4341,0.4433,0.4446,0.4329,0.4327,0.4325,0,0.3012,0.3186,0.3302,0.3355,0.3505,0.3558,0.3624,0.3731,0.3799,0.3903,0.3949,0.4064,0.4127,0.4217,0.4296,0.4276,0.4444,0.4433,0.4485,0.4483,0.4518,0.4515,0.4621,0.4555,0.4555,0.4555,0.4555,0,0.3097,0.3191,0.331,0.3382,0.3489,0.357,0.3675,0.3745,0.384,0.3928,0.3984,0.4066,0.4165,0.4261,0.4324,0.4443,0.4471,0.4512,0.4527,0.4507,0.4502,0.4548,0.4544,0.4559,0.4558,0.4557,0.4556,0,0.3131,0.3214,0.3345,0.3476,0.3512,0.3585,0.3699,0.3772,0.3841,0.3951,0.3982,0.4091,0.4207,0.4294,0.4445,0.4487,0.4615,0.4631,0.4577,0.4585,0.4633,0.4628,0.4773,0.4797,0.4714,0.4715,0.4715,0,0.3179,0.3253,0.3392,0.3454,0.3518,0.3618,0.3688,0.3772,0.3843,0.3974,0.4032,0.4151,0.4251,0.4434,0.4528,0.4644,0.4664,0.4707,0.4682,0.466,0.4667,0.4661,0.467,0.471,0.4711,0.4711,0.4711,0,0.3257,0.3296,0.3394,0.3508,0.359,0.3684,0.3779,0.3827,0.3929,0.4007,0.4125,0.4202,0.4355,0.4474,0.46,0.467,0.4709,0.4719,0.4737,0.4717,0.4684,0.4704,0.4587,0.4715,0.4715,0.4714,0.4714,0.4714,0.3301,0.337,0.3478,0.3587,0.3667,0.3755,0.3831,0.3909,0.4009,0.4139,0.4183,0.4305,0.4416,0.4589,0.4661,0.4759,0.476,0.4787,0.4794,0.4799,0.4798,0.4667,0.4783,0.4783,0.4783,0.4783,0.4783,0,0.3383,0.3456,0.3555,0.3686,0.3772,0.38,0.3907,0.3978,0.4084,0.4183,0.428,0.4418,0.4534,0.4637,0.4759,0.4818,0.4839,0.4847,0.4844,0.486,0.479,0.4762,0.4828,0.4828,0.4828,0.4828,0.4828,0.4828,0.3436,0.3553,0.3605,0.3765,0.3838,0.3957,0.4016,0.4099,0.4179,0.4329,0.4425,0.4491,0.4593,0.4723,0.4831,0.4859,0.4902,0.4906,0.4938,0.487,0.4865,0.4859,0.4834,0.4914,0.4914,0.5001,0.5002,0.5002]},{"header":{"parameterUnit":"m.s-1","parameterCategory":1,"la1":30.2991,"la2":30.254,"lo1":-89.0895,"lo2":-89.0444,"dy":0.0017,"dx":0.0017,"nx":28,"ny":28,"refTime":"2024-07-14T03:00:00:Z","depth":0,"parameterNumber":3,"parameterNumberName":"V-component_of_WINDS"},"data":[0,0,0,0,0,0,0,0,0,0,0,0,0,0,0,0,0,0,0,0,0,0,0,0,0,0,0,0,0,0,0,0,0,0,0,0,0,0,0,0,0,0,0,0,0,0,0,0,0,0,0,0,0,0,0,0,0,0,-1.4415,-1.4415,0,-1.4388,-1.4387,-1.4387,-1.445,-1.4452,-1.4454,-1.4456,-1.4419,-1.4416,-1.4413,0,0,0,0,0,0,0,0,0,0,0,0,0,-1.4515,-1.4513,-1.4415,-1.4415,-1.4415,-1.4388,-1.4387,-1.4387,-1.4449,-1.4452,-1.4454,-1.4457,-1.442,-1.4416,-1.4413,0,0,0,0,0,0,0,0,0,0,0,0,0,-1.4478,-1.4512,-1.4415,-1.4443,-1.4445,-1.4388,-1.4387,-1.4387,-1.4449,-1.4452,-1.4455,-1.4458,-1.4421,-1.4417,-1.4413,-1.4325,0,0,-1.4399,-1.4397,0,0,0,0,0,0,0,0,-1.448,-1.4474,-1.4439,-1.4441,-1.4443,-1.4425,-1.4409,-1.4366,-1.4448,-1.4447,-1.4456,-1.4459,-1.4418,-1.4414,-1.4402,-1.4323,-1.4321,-1.4399,-1.4396,-1.4394,-1.4393,0,0,0,0,0,0,0,-1.4482,-1.4475,-1.4404,-1.4438,-1.4441,-1.4454,-1.4452,-1.4401,-1.4415,-1.4447,-1.4452,-1.4448,-1.442,-1.4406,-1.4402,-1.4321,-1.4399,-1.4395,-1.4393,-1.4391,-1.4166,-1.4163,0,0,0,0,0,0,-1.4482,-1.4477,-1.4405,-1.4403,-1.447,-1.445,-1.4448,-1.4428,-1.4416,-1.4418,-1.4446,-1.4451,-1.4412,-1.4406,-1.44,-1.4294,-1.4395,-1.439,-1.4388,-1.4169,-1.4165,-1.4162,0,0,0,0,0,0,-1.4484,-1.4475,-1.4406,-1.4442,-1.4434,-1.4445,-1.4422,-1.4426,-1.4412,-1.4415,-1.4417,-1.4429,-1.4414,-1.4407,-1.4343,-1.4294,-1.4389,-1.4385,-1.4173,-1.4168,-1.4163,-1.4083,0,0,0,0,0,0,-1.4487,-1.4476,-1.4444,-1.444,-1.4432,-1.4351,-1.4419,-1.4423,-1.4405,-1.4412,-1.44,-1.4401,-1.4416,-1.4349,-1.4339,-1.429,-1.4381,-1.4178,-1.4171,-1.4165,-1.409,-1.4075,-1.4063,0,0,0,0,0,-1.449,-1.4421,-1.4442,-1.4433,-1.4393,-1.4348,-1.4343,-1.4363,-1.4401,-1.4368,-1.437,-1.4402,-1.4302,-1.4342,-1.4331,-1.428,-1.4181,-1.4173,-1.4165,-1.4096,-1.4078,-1.4064,0,0,0,0,0,0,-1.4416,-1.4421,-1.4444,-1.4373,-1.436,-1.4359,-1.4318,-1.4345,-1.4319,-1.4326,-1.4351,-1.4347,-1.4278,-1.4274,-1.4318,-1.4193,-1.4247,-1.4237,-1.4198,-1.4182,-1.4169,-1.4169,-1.4378,0,0,0,0,0,-1.4392,-1.4358,-1.4363,-1.4299,-1.4292,-1.4306,-1.4287,-1.4305,-1.4291,-1.4285,-1.4283,-1.4266,-1.4231,-1.4207,-1.4175,-1.4091,-1.4087,-1.405,-1.4037,-1.4026,-1.4015,-1.3968,-1.395,-1.4137,-1.4137,-1.4137,0,0,-1.434,-1.4339,-1.4315,-1.4284,-1.4276,-1.4237,-1.4301,-1.4257,-1.4228,-1.4278,-1.4217,-1.4215,-1.4198,-1.4123,-1.409,-1.4117,-1.3964,-1.4017,-1.4008,-1.4003,-1.3958,-1.394,-1.3925,-1.4131,-1.4132,-1.4133,0,0,-1.4225,-1.4223,-1.4168,-1.4159,-1.4148,-1.4158,-1.4144,-1.414,-1.4141,-1.4082,-1.4118,-1.4082,-1.4022,-1.4008,-1.3992,-1.3874,-1.39,-1.3863,-1.3792,-1.3745,-1.373,-1.3717,-1.3671,-1.3654,-1.3853,-1.3853,-1.3853,0,-1.4161,-1.4106,-1.4135,-1.4089,-1.4073,-1.4121,-1.4063,-1.4053,-1.403,-1.4016,-1.4049,-1.3973,-1.3965,-1.3886,-1.3858,-1.3845,-1.3828,-1.3862,-1.3731,-1.3718,-1.3706,-1.3662,-1.3645,-1.3848,-1.3849,-1.3849,-1.385,0,-1.4027,-1.3988,-1.3945,-1.3924,-1.3904,-1.3852,-1.3871,-1.3847,-1.3866,-1.3872,-1.381,-1.3803,-1.3769,-1.3753,-1.3771,-1.3676,-1.3692,-1.3727,-1.3781,-1.3683,-1.3641,-1.3625,-1.3841,-1.3843,-1.3844,-1.3846,0,0,-1.3859,-1.3858,-1.3841,-1.3831,-1.3822,-1.3792,-1.3742,-1.3712,-1.3689,-1.3672,-1.3628,-1.3577,-1.3609,-1.3592,-1.3609,-1.3569,-1.347,-1.3608,-1.3608,-1.3579,-1.3361,-1.3331,-1.3311,-1.349,-1.3487,-1.3485,-1.3361,0,-1.3743,-1.3659,-1.3684,-1.3599,-1.3561,-1.3607,-1.3563,-1.3551,-1.3556,-1.3523,-1.3528,-1.349,-1.3537,-1.3527,-1.3489,-1.349,-1.3426,-1.35,-1.3445,-1.3443,-1.3443,-1.329,-1.3259,-1.3142,-1.3345,-1.3343,-1.3341,0,-1.3594,-1.3574,-1.3485,-1.3482,-1.3468,-1.3428,-1.3401,-1.3371,-1.3358,-1.3365,-1.3346,-1.3372,-1.3319,-1.3378,-1.3304,-1.3354,-1.3334,-1.3331,-1.3327,-1.3318,-1.3382,-1.3273,-1.3105,-1.3086,-1.3316,-1.3318,-1.332,0,-1.3476,-1.3427,-1.3367,-1.3358,-1.3354,-1.3324,-1.3321,-1.3312,-1.3291,-1.3268,-1.3255,-1.3225,-1.3207,-1.3183,-1.3198,-1.324,-1.312,-1.3181,-1.312,-1.3119,-1.3088,-1.3089,-1.291,-1.3083,-1.3084,-1.3084,-1.3084,0,-1.334,-1.3282,-1.3314,-1.3276,-1.3212,-1.3242,-1.3177,-1.3179,-1.317,-1.3131,-1.317,-1.3132,-1.3158,-1.3122,-1.3134,-1.3069,-1.3062,-1.3062,-1.3065,-1.3056,-1.3055,-1.3038,-1.3045,-1.3079,-1.308,-1.3081,-1.3082,0,-1.3194,-1.3214,-1.315,-1.3153,-1.3153,-1.3105,-1.3106,-1.3069,-1.3079,-1.3029,-1.3019,-1.3032,-1.2991,-1.3006,-1.2962,-1.297,-1.2886,-1.2902,-1.289,-1.2892,-1.2829,-1.2833,-1.2629,-1.2602,-1.2797,-1.2795,-1.2794,0,-1.3104,-1.3061,-1.306,-1.3038,-1.3032,-1.2997,-1.2977,-1.3005,-1.2982,-1.2965,-1.293,-1.2894,-1.2865,-1.2798,-1.2801,-1.2767,-1.2779,-1.271,-1.2774,-1.2765,-1.2772,-1.2773,-1.2767,-1.2695,-1.2693,-1.2692,-1.269,0,-1.2939,-1.2951,-1.2923,-1.2897,-1.2874,-1.2855,-1.2838,-1.2818,-1.2845,-1.2817,-1.2777,-1.2756,-1.2712,-1.2674,-1.2644,-1.2637,-1.2665,-1.2671,-1.2654,-1.2641,-1.2635,-1.2633,-1.285,-1.2674,-1.2676,-1.2677,-1.2678,-1.2678,-1.2815,-1.2778,-1.2771,-1.2738,-1.273,-1.2714,-1.268,-1.2686,-1.2654,-1.2622,-1.2641,-1.2593,-1.2581,-1.2544,-1.2533,-1.2495,-1.2521,-1.2498,-1.2491,-1.2483,-1.2473,-1.2646,-1.249,-1.249,-1.2491,-1.2491,-1.2492,0,-1.2648,-1.2647,-1.2617,-1.2594,-1.2567,-1.2603,-1.2587,-1.256,-1.2519,-1.2507,-1.2479,-1.2432,-1.2396,-1.2397,-1.2363,-1.2331,-1.2343,-1.2321,-1.232,-1.2317,-1.2454,-1.247,-1.2311,-1.2311,-1.2311,-1.2311,-1.2311,-1.2311,-1.2558,-1.2496,-1.2508,-1.2442,-1.2441,-1.2397,-1.2384,-1.2369,-1.2359,-1.2306,-1.2277,-1.228,-1.2272,-1.2237,-1.2204,-1.2206,-1.2188,-1.216,-1.2165,-1.2291,-1.2308,-1.2325,-1.234,-1.2157,-1.2157,-1.2032,-1.203,-1.203]}]]